| time (UTC) | temp F | wind direction | speed MPH | gust MPH | rain 1hr in | rain 24hr in | rain mn in | humidity % | barometer mb |
| 20260503190004 | 61 | 338 | 10.0 | 15.0 | 0.00 | 0.00 | 0.00 | 37 | 1008.1 |
| 20260503184503 | 62 | 310 | 7.0 | 14.0 | 0.00 | 0.00 | 0.00 | 32 | 1008.2 |
| 20260503183058 | 62 | 231 | 10.0 | 17.0 | 0.00 | 0.00 | 0.00 | 34 | 1008.4 |
| 20260503181555 | 64 | 250 | 6.0 | 18.0 | 0.00 | 0.00 | 0.00 | 33 | 1008.7 |
| 20260503180058 | 62 | 238 | 7.0 | 17.0 | 0.00 | 0.00 | 0.00 | 35 | 1008.9 |
| 20260503174544 | 61 | 178 | 10.0 | 16.0 | 0.00 | 0.00 | 0.00 | 37 | 1009.0 |
| 20260503173112 | 61 | 198 | 15.0 | 17.0 | 0.00 | 0.00 | 0.00 | 37 | 1009.2 |
| 20260503171507 | 60 | 195 | 10.0 | 17.0 | 0.00 | 0.00 | 0.00 | 37 | 1009.4 |
| 20260503081516 | 38 | 157 | 1.0 | 2.0 | 0.00 | 0.00 | 0.00 | 79 | 1011.4 |
| 20260503071516 | 39 | 206 | 0.0 | 2.0 | 0.00 | 0.00 | 0.00 | 75 | 1011.5 |
| 20260503060109 | 42 | 240 | 0.0 | 1.0 | 0.00 | 0.00 | 0.00 | 69 | 1011.3 |
| 20260503054556 | 43 | 178 | 0.0 | 2.0 | 0.00 | 0.00 | 0.00 | 70 | 1011.3 |
| 20260503053041 | 43 | 245 | 0.0 | 2.0 | 0.00 | 0.00 | 0.00 | 69 | 1011.3 |
| 20260503051538 | 44 | 191 | 1.0 | 4.0 | 0.00 | 0.00 | 0.00 | 68 | 1011.3 |
| 20260503050040 | 44 | 198 | 4.0 | 6.0 | 0.00 | 0.00 | 0.00 | 66 | 1011.3 |
| 20260503044535 | 45 | 240 | 0.0 | 3.0 | 0.00 | 0.00 | 0.00 | 62 | 1011.1 |
| 20260503043034 | 46 | 191 | 4.0 | 5.0 | 0.00 | 0.00 | 0.00 | 59 | 1011.4 |
| 20260503041538 | 48 | 291 | 1.0 | 3.0 | 0.00 | 0.00 | 0.00 | 54 | 1011.3 |
| 20260503040033 | 49 | 310 | 2.0 | 3.0 | 0.00 | 0.00 | 0.00 | 52 | 1011.2 |
| 20260503034532 | 51 | 295 | 0.0 | 4.0 | 0.00 | 0.00 | 0.00 | 49 | 1011.1 |
| 20260503033131 | 52 | 324 | 3.0 | 6.0 | 0.00 | 0.00 | 0.00 | 46 | 1011.1 |
| 20260503031607 | 54 | 32 | 4.0 | 7.0 | 0.00 | 0.00 | 0.00 | 44 | 1011.1 |
| 20260503030100 | 56 | 47 | 5.0 | 10.0 | 0.00 | 0.00 | 0.00 | 42 | 1011.2 |
| 20260503024529 | 57 | 37 | 6.0 | 10.0 | 0.00 | 0.00 | 0.00 | 40 | 1011.0 |
| 20260503023026 | 58 | 32 | 7.0 | 12.0 | 0.00 | 0.00 | 0.00 | 34 | 1010.8 |
| 20260503021525 | 59 | 336 | 5.0 | 9.0 | 0.00 | 0.00 | 0.00 | 32 | 1010.6 |
| 20260503020024 | 60 | 32 | 8.0 | 13.0 | 0.00 | 0.00 | 0.00 | 29 | 1010.3 |
| 20260503014522 | 62 | 350 | 9.0 | 15.0 | 0.00 | 0.00 | 0.00 | 28 | 1010.2 |
| 20260503013024 | 63 | 356 | 9.0 | 15.0 | 0.00 | 0.00 | 0.00 | 27 | 1010.0 |
| 20260503011520 | 63 | 3 | 9.0 | 14.0 | 0.00 | 0.00 | 0.00 | 27 | 1010.0 |
| 20260503010022 | 64 | 11 | 11.0 | 18.0 | 0.00 | 0.00 | 0.00 | 26 | 1010.0 |
| 20260503004518 | 65 | 1 | 11.0 | 19.0 | 0.00 | 0.00 | 0.00 | 24 | 1009.9 |
| 20260503003015 | 67 | 8 | 14.0 | 19.0 | 0.00 | 0.00 | 0.00 | 23 | 1010.0 |
| 20260503001512 | 67 | 13 | 12.0 | 18.0 | 0.00 | 0.00 | 0.00 | 23 | 1010.1 |
| 20260503000010 | 67 | 354 | 11.0 | 19.0 | 0.00 | 0.00 | 0.00 | 23 | 1010.3 |
| 20260502234508 | 68 | 6 | 12.0 | 18.0 | 0.00 | 0.00 | 0.00 | 21 | 1010.4 |
| 20260502233007 | 70 | 8 | 12.0 | 19.0 | 0.00 | 0.00 | 0.00 | 20 | 1010.4 |
| 20260502231505 | 70 | 296 | 11.0 | 15.0 | 0.00 | 0.00 | 0.00 | 18 | 1010.4 |
| 20260502230035 | 70 | 346 | 6.0 | 13.0 | 0.00 | 0.00 | 0.00 | 18 | 1010.6 |
| 20260502224528 | 69 | 350 | 6.0 | 12.0 | 0.00 | 0.00 | 0.00 | 18 | 1010.7 |
| 20260502223025 | 70 | 354 | 11.0 | 14.0 | 0.00 | 0.00 | 0.00 | 18 | 1010.8 |
| 20260502221521 | 70 | 28 | 7.0 | 16.0 | 0.00 | 0.00 | 0.00 | 17 | 1011.1 |
| 20260502220017 | 70 | 303 | 7.0 | 16.0 | 0.00 | 0.00 | 0.00 | 16 | 1011.3 |
| 20260502214514 | 70 | 23 | 5.0 | 13.0 | 0.00 | 0.00 | 0.00 | 15 | 1011.4 |
| 20260502213007 | 70 | 283 | 10.0 | 14.0 | 0.00 | 0.00 | 0.00 | 17 | 1011.9 |
| 20260502211507 | 69 | 311 | 8.0 | 19.0 | 0.00 | 0.00 | 0.00 | 16 | 1012.1 |
| 20260502210116 | 70 | 8 | 10.0 | 16.0 | 0.00 | 0.00 | 0.00 | 16 | 1012.1 |
| 20260502210001 | 69 | 323 | 9.0 | 16.0 | 0.00 | 0.00 | 0.00 | 16 | 1012.2 |
| 20260502204558 | 69 | 319 | 7.0 | 12.0 | 0.00 | 0.00 | 0.00 | 15 | 1012.5 |
| 20260502203052 | 69 | 245 | 4.0 | 15.0 | 0.00 | 0.00 | 0.00 | 16 | 1012.6 |
| 20260502201553 | 69 | 327 | 9.0 | 15.0 | 0.00 | 0.00 | 0.00 | 15 | 1012.8 |
| 20260502200049 | 68 | 28 | 3.0 | 14.0 | 0.00 | 0.00 | 0.00 | 16 | 1012.8 |
| 20260502194546 | 68 | 25 | 7.0 | 14.0 | 0.00 | 0.00 | 0.00 | 15 | 1012.9 |
| 20260502193040 | 68 | 326 | 9.0 | 16.0 | 0.00 | 0.00 | 0.00 | 15 | 1013.1 |
| 20260502191550 | 68 | 321 | 6.0 | 15.0 | 0.00 | 0.00 | 0.00 | 15 | 1013.1 |